Tracking 30923 objects as of 1-Jul-2025
HD Live streaming from Space Station
objects crossing your sky now

STARLINK-6261

Track STARLINK-6261 now!
10-day predictions
STARLINK-6261 is classified as:


NORAD ID: 56417
Int'l Code: 2023-061AV
Perigee: 565.3 km
Apogee: 567.1 km
Inclination: 43.0 °
Period: 95.8 minutes
Semi major axis: 6937 km
RCS: Unknown
Launch date: May 4, 2023
Source: United States (US)
Launch site: AIR FORCE EASTERN TEST RANGE (AFETR)
Your satellite tracking list
FLOCK 1C 6
Track 1 satellite(s)




NASA's NSSDC Master Catalog

Two Line Element Set (TLE):
1 56417U 23061AV  25181.18117127 -.00000034  00000-0  12591-4 0  9990
2 56417  43.0037 116.2828 0001273 268.4004  91.6693 15.02534648118920
Source of the keplerian elements: AFSPC